Regional Weather Roundup
Issued by NWS

Home | Current Version | Previous Version | Graphics & Text | Print | Product List | Glossary On
Versions: 1 2 3 4 5 6 7 8 9 10 11 12 13 14 15 16 17 18 19 20 21 22 23 24 25 26 27 28 29 30 31 32 33 34 35 36 37 38 39 40 41 42 43 44 45 46 47 48 49 50
810
ASUS43 KLMK 071310
RWRKY
KENTUCKY REGIONAL WEATHER ROUNDUP
NATIONAL WEATHER SERVICE LOUISVILLE KY
800 AM EST SUN FEB 07 2016

NOTE "FAIR" INDICATES FEW OR NO CLOUDS BELOW 12,000 FEET
WITH NO SIGNIFICANT WEATHER AND/OR OBSTRUCTIONS TO VISIBILITY.

KYZ001>023-026-027-061>063-070>075-071400-
WESTERN AND SOUTH CENTRAL KENTUCKY

CITY           SKY/WX    TMP DP  RH WIND       PRES   REMARKS
PADUCAH        PTCLDY    36  22  56 S6        30.14F WCI  31
HENDERSON      MOCLDY    36  23  60 SW12      30.13F WCI  27
OWENSBORO      CLEAR     31  24  75 S7        30.16F WCI  24
HOPKINSVILLE   CLEAR     29  21  73 S2        30.19S
BOWLING GREEN  CLEAR     24  22  91 CALM      30.21R
GLASGOW        CLEAR     24  24 100 CALM      30.20R
$$

KYZ024-025-028>034-038-045-046-053-071400-
NORTH CENTRAL KENTUCKY

CITY           SKY/WX    TMP DP  RH WIND       PRES   REMARKS
LOUISVILLE/SDF MOCLDY    37  21  52 S7        30.15R WCI  32
LOUISVILLE/LOU CLEAR     28  23  81 CALM      30.16R
FORT KNOX      CLEAR     32  20  62 S3        30.14R
$$

KYZ035>037-039>044-047>052-055>060-089>105-071400-
NORTHEAST KENTUCKY

CITY           SKY/WX    TMP DP  RH WIND       PRES   REMARKS
LEXINGTON      CLEAR     30  20  66 S7        30.16R WCI  23
COVINGTON      PTCLDY    31  22  69 S7        30.11S WCI  24
FRANKFORT      CLEAR     25  20  81 SE3       30.15R
$$

KYZ054-064>069-076>088-106>120-071400-
SOUTHEAST KENTUCKY

CITY           SKY/WX    TMP DP  RH WIND       PRES   REMARKS
JACKSON        PTCLDY    31  20  63 SW3       30.17S
LONDON         CLEAR     24  19  81 CALM      30.19S
SOMERSET       CLEAR     23  23 100 CALM      30.22S
MIDDLESBORO    CLEAR     23  22  97 CALM      30.22R
MONTICELLO     SUNNY     19  18  95 NW9       30.23R WCI   8
$$





USA.gov is the U.S. government's official web portal to all federal, state and local government web resources and services.